EW2456 Weather Reports


time (UTC)temp
C
wind
direction
speed
KPH
gust
KPH
rain 1hr
cm
rain 24hr
cm
rain mn
cm
humidity
%
barometer
mb
20260505111554 11 323 0.0 3.2 0.03 0.03 0.03 68 1015.6
20260505101537 10 215 0.0 1.6 0.00 0.00 0.00 67 1014.9
20260505100044 10 215 0.0 1.6 0.00 0.00 0.00 67 1014.7
20260505094534 10 215 0.0 3.2 0.00 0.00 0.00 67 1014.7
20260505093033 11 215 0.0 0.0 0.00 0.00 0.00 66 1014.6
20260505091538 11 215 0.0 0.0 0.00 0.00 0.00 65 1014.6
20260505090047 11 215 0.0 0.0 0.00 0.00 0.00 64 1014.6
20260505084534 12 215 0.0 0.0 0.00 0.00 0.00 63 1014.4
20260505083033 12 215 0.0 0.0 0.00 0.00 0.00 61 1014.5
20260505081525 12 215 0.0 1.6 0.00 0.00 0.00 60 1014.4
20260505080024 13 215 0.0 3.2 0.00 0.00 0.00 60 1014.3
20260505074515 13 215 0.0 3.2 0.00 0.00 0.00 59 1014.2
20260505073013 13 215 0.0 1.6 0.00 0.00 0.00 58 1014.1
20260505071522 13 215 0.0 4.8 0.00 0.00 0.00 56 1014.1
20260505070009 14 215 1.6 4.8 0.00 0.00 0.00 56 1014.1
20260505064505 15 215 1.6 6.4 0.00 0.00 0.00 55 1014.1
20260505063003 15 209 1.6 8.0 0.00 0.00 0.00 54 1014.0
20260505061505 15 215 3.2 11.3 0.00 0.00 0.00 54 1014.0
20260505054621 15 214 3.2 9.7 0.00 0.00 0.00 53 1014.1
20260505053056 16 193 4.8 9.7 0.00 0.00 0.00 53 1014.2
20260505051554 16 217 3.2 11.3 0.00 0.00 0.00 53 1014.3
20260505041548 16 228 3.2 11.3 0.00 0.00 0.00 51 1014.2
20260505040046 17 215 3.2 16.1 0.00 0.00 0.00 51 1014.3
20260505034546 17 205 6.4 17.7 0.00 0.00 0.00 50 1014.3
20260505033050 17 219 8.0 17.7 0.00 0.00 0.00 49 1014.2
20260505031544 17 234 4.8 14.5 0.00 0.00 0.00 49 1014.2
20260505030046 18 178 4.8 12.9 0.00 0.00 0.00 49 1014.3
20260505024604 18 225 3.2 16.1 0.00 0.00 0.00 48 1014.3
20260505023043 18 221 3.2 14.5 0.00 0.00 0.00 48 1014.2
20260505021601 18 200 3.2 17.7 0.00 0.00 0.00 48 1014.1
20260505020047 19 153 4.8 20.9 0.00 0.00 0.00 47 1014.1
20260505014545 20 204 4.8 19.3 0.00 0.00 0.00 45 1013.9
20260505013041 20 222 4.8 16.1 0.00 0.00 0.00 41 1013.7
20260505011550 20 250 3.2 11.3 0.00 0.00 0.00 34 1013.3
20260505010043 20 162 3.2 9.7 0.00 0.00 0.00 33 1013.1
20260505004544 21 208 3.2 8.0 0.00 0.00 0.00 32 1012.9
20260505003039 21 213 3.2 9.7 0.00 0.00 0.00 32 1012.8
20260505001539 21 194 3.2 8.0 0.00 0.00 0.00 30 1012.7
20260505000042 22 227 3.2 9.7 0.00 0.00 0.00 29 1012.6
20260504234538 23 205 3.2 11.3 0.00 0.00 0.00 28 1012.5
20260504233053 23 215 1.6 9.7 0.00 0.00 0.00 27 1012.3
20260504231537 23 250 3.2 14.5 0.00 0.00 0.00 26 1012.2
20260504230036 24 193 6.4 16.1 0.00 0.00 0.00 24 1012.1
20260504224535 25 217 6.4 12.9 0.00 0.00 0.00 23 1012.1
20260504223037 25 181 4.8 19.3 0.00 0.00 0.00 21 1012.1
20260504221538 26 223 4.8 16.1 0.00 0.00 0.00 20 1012.1
20260504220033 26 229 6.4 14.5 0.00 0.00 0.00 19 1012.0
20260504214532 26 215 8.0 14.5 0.00 0.00 0.00 18 1012.2
20260504213030 26 213 9.7 14.5 0.00 0.00 0.00 19 1012.2
20260504211529 26 234 9.7 19.3 0.00 0.00 0.00 17 1012.3
20260504210028 26 227 8.0 12.9 0.00 0.00 0.00 18 1012.3
20260504204531 26 236 8.0 22.5 0.00 0.00 0.00 17 1012.4
20260504203025 26 188 6.4 17.7 0.00 0.00 0.00 19 1012.6
20260504201521 25 233 9.7 20.9 0.00 0.00 0.00 18 1012.7
20260504200020 26 213 8.0 14.5 0.00 0.00 0.00 21 1012.8
20260504194519 26 355 6.4 19.3 0.00 0.00 0.00 18 1012.9
20260504193015 25 214 3.2 16.1 0.00 0.00 0.00 21 1012.9
20260504191514 25 199 3.2 17.7 0.00 0.00 0.00 21 1013.1
20260504190010 25 237 4.8 12.9 0.00 0.00 0.00 20 1013.4
20260504184513 25 267 4.8 16.1 0.00 0.00 0.00 23 1013.6
20260504183006 24 240 6.4 11.3 0.00 0.00 0.00 23 1013.6
20260504181505 24 207 6.4 14.5 0.00 0.00 0.00 24 1013.8
20260504180003 24 179 8.0 16.1 0.00 0.00 0.00 23 1013.9
20260504174600 23 238 6.4 14.5 0.00 0.00 0.00 23 1014.1
20260504173100 23 215 4.8 24.1 0.00 0.00 0.00 29 1014.3
20260504171557 23 242 11.3 22.5 0.00 0.00 0.00 24 1014.7